This demonstration page uses our WeatherBlox Daily Observations layout. Learn more.

38.88101, -77.10428

Hourly Observations for March 2, 2017

Temp ( °F °C ) Dew Point ( °F °C ) Humidity (%) Winds ( mph kmh ) Pressure ( in mb ) Visibility ( mi km ) Precip ( " mm )
12:52 am 00:52 Cloudy with Light Rain 62 16.7 55 12.8 78 78 WNW 10 17 29.62 1003 10 16.09344 0.001 0.001
1:52 am 01:52 Cloudy 60 15.6 36 2.2 41 41 NW 16 26 29.65 1004 10 16.09344 0.01 0.254
2:15 am 02:15 Cloudy 58 14.4 35 1.7 42 42 WNW 20 31 29.68 1005 10 16.09344 0 0
2:52 am 02:52 Partly Cloudy 54 12.2 27 -2.8 35 35 NW 28 44 29.68 1005 10 16.09344 0 0
3:52 am 03:52 Mostly Clear 51 10.6 22 -5.6 32 32 NW 24 39 29.74 1007 10 16.09344 0 0
4:52 am 04:52 Mostly Clear 50 10 23 -5 35 35 W 17 28 29.77 1008 10 16.09344 0 0
5:52 am 05:52 Mostly Clear 49 9.4 21 -6.1 33 33 W 15 24 29.8 1009 10 16.09344 0 0
6:52 am 06:52 Mostly Sunny 47 8.3 22 -5.6 37 37 WNW 21 33 29.83 1010 10 16.09344 0 0
7:52 am 07:52 Mostly Sunny 47 8.3 23 -5 39 39 WNW 18 30 29.88 1012 10 16.09344 0 0
8:52 am 08:52 Partly Cloudy 48 8.9 24 -4.4 39 39 NW 13 20 29.91 1013 10 16.09344 0 0
9:52 am 09:52 Partly Cloudy 47 8.3 23 -5 39 39 WNW 22 35 29.97 1015 10 16.09344 0 0
10:52 am 10:52 Mostly Cloudy 47 8.3 23 -5 39 39 NW 28 44 30 1016 10 16.09344 0 0
11:52 am 11:52 Mostly Cloudy 49 9.4 23 -5 36 36 W 23 37 30 1016 10 16.09344 0 0
12:52 pm 12:52 Partly Cloudy 50 10 22 -5.6 33 33 NW 22 35 30 1016 10 16.09344 0 0
1:52 pm 13:52 Partly Cloudy 51 10.6 23 -5 33 33 WNW 13 20 30 1016 10 16.09344 0 0
2:52 pm 14:52 Partly Cloudy 50 10 21 -6.1 32 32 WNW 21 33 30 1016 10 16.09344 0 0
3:52 pm 15:52 Mostly Sunny 50 10 19 -7.2 29 29 WNW 21 33 30.03 1017 10 16.09344 0 0
4:52 pm 16:52 Mostly Sunny 50 10 19 -7.2 29 29 WNW 15 24 30.06 1018 10 16.09344 0 0
5:52 pm 17:52 Mostly Sunny 47 8.3 18 -7.8 31 31 W 20 31 30.09 1019 10 16.09344 0 0
6:52 pm 18:52 Mostly Clear 46 7.8 17 -8.3 31 31 WNW 16 26 30.12 1020 10 16.09344 0 0
7:52 pm 19:52 Mostly Clear 45 7.2 18 -7.8 34 34 W 13 20 30.15 1021 10 16.09344 0 0
8:52 pm 20:52 Mostly Cloudy 44 6.7 20 -6.7 38 38 NW 16 26 30.18 1022 10 16.09344 0 0
9:15 pm 21:15 Mostly Cloudy 43 6.1 21 -6.1 42 42 WNW 14 22 30.21 1023 10 16.09344 0 0
9:52 pm 21:52 Mostly Cloudy 42 5.6 23 -5 47 47 W 16 26 30.21 1023 10 16.09344 0 0
10:52 pm 22:52 Mostly Clear 41 5 23 -5 49 49 W 15 24 30.21 1023 10 16.09344 0 0
11:52 pm 23:52 Mostly Clear 40 4.4 22 -5.6 49 49 W 9 15 30.21 1023 10 16.09344 0 0

Powered by AerisWeather